Previsão horária em Alitub

Hoje, 14 Junho, Segunda-feira

Tempo Temperatura Precipitação Vento Pressão Humidade
00:00 +20°C° 0.1 mm 1 m/s 758 mmHg 83%
01:00 +19°C° 0 mm 1 m/s 758 mmHg 84%
02:00 +19°C° 0 mm 1 m/s 758 mmHg 84%
03:00 +19°C° 0 mm 1 m/s 758 mmHg 84%
04:00 +19°C° 0 mm 1 m/s 758 mmHg 83%
05:00 +18°C° 0 mm 0 m/s 758 mmHg 82%
06:00 +18°C° 0 mm 0 m/s 759 mmHg 82%
07:00 +20°C° 0 mm 0 m/s 759 mmHg 76%
08:00 +21°C° 0 mm 0 m/s 759 mmHg 71%
09:00 +25°C° 0 mm 1 m/s 759 mmHg 67%
10:00 +26°C° 0.1 mm 1 m/s 759 mmHg 62%
11:00 +27°C° 0.1 mm 1 m/s 759 mmHg 58%
12:00 +28°C° 0.1 mm 1 m/s 759 mmHg 54%
13:00 +28°C° 0 mm 1 m/s 759 mmHg 51%
14:00 +29°C° 0 mm 1 m/s 759 mmHg 49%
15:00 +29°C° 0 mm 1 m/s 758 mmHg 46%
16:00 +29°C° 0 mm 1 m/s 758 mmHg 50%
17:00 +29°C° 0 mm 1 m/s 758 mmHg 53%
18:00 +29°C° 0 mm 2 m/s 758 mmHg 57%
19:00 +27°C° 0 mm 2 m/s 758 mmHg 59%
20:00 +26°C° 0 mm 2 m/s 758 mmHg 61%
21:00 +24°C° 0 mm 2 m/s 758 mmHg 63%
22:00 +23°C° 0 mm 2 m/s 758 mmHg 65%
23:00 +23°C° 0 mm 2 m/s 757 mmHg 67%

Amanhã, 15 Junho, Terça-feira

Tempo Temperatura Precipitação Vento Pressão Humidade
00:00 +21°C° 0 mm 2 m/s 757 mmHg 70%
01:00 +21°C° 0 mm 2 m/s 757 mmHg 70%
02:00 +21°C° 0 mm 2 m/s 757 mmHg 71%
03:00 +21°C° 0 mm 2 m/s 757 mmHg 72%
04:00 +21°C° 0 mm 2 m/s 757 mmHg 74%
05:00 +21°C° 0 mm 2 m/s 757 mmHg 76%
06:00 +21°C° 0 mm 3 m/s 757 mmHg 79%
07:00 +22°C° 0 mm 3 m/s 757 mmHg 74%
08:00 +25°C° 0 mm 3 m/s 757 mmHg 69%
09:00 +26°C° 0 mm 3 m/s 757 mmHg 64%
10:00 +27°C° 0.3 mm 3 m/s 757 mmHg 60%
11:00 +28°C° 0.3 mm 2 m/s 757 mmHg 56%
12:00 +29°C° 0.3 mm 2 m/s 757 mmHg 51%
13:00 +29°C° 0 mm 2 m/s 757 mmHg 50%
14:00 +29°C° 0 mm 1 m/s 756 mmHg 49%
15:00 +30°C° 0 mm 1 m/s 756 mmHg 48%
16:00 +29°C° 0 mm 1 m/s 756 mmHg 52%
17:00 +29°C° 0 mm 1 m/s 756 mmHg 56%
18:00 +28°C° 0 mm 1 m/s 756 mmHg 60%
19:00 +27°C° 0.1 mm 1 m/s 756 mmHg 64%
20:00 +25°C° 0.1 mm 1 m/s 756 mmHg 68%
21:00 +24°C° 0.1 mm 1 m/s 757 mmHg 73%
22:00 +23°C° 0.2 mm 1 m/s 757 mmHg 76%
23:00 +22°C° 0.2 mm 1 m/s 757 mmHg 79%

Depois de amanhã, 16 Junho, Quarta-feira

Tempo Temperatura Precipitação Vento Pressão Humidade
00:00 +22°C° 0.2 mm 1 m/s 757 mmHg 82%
01:00 +21°C° 0 mm 1 m/s 757 mmHg 83%
02:00 +19°C° 0 mm 0 m/s 757 mmHg 84%
03:00 +19°C° 0 mm 0 m/s 757 mmHg 86%
04:00 +19°C° 0 mm 0 m/s 757 mmHg 84%
05:00 +20°C° 0 mm 0 m/s 757 mmHg 83%
06:00 +20°C° 0 mm 0 m/s 757 mmHg 81%
07:00 +24°C° 0 mm 1 m/s 757 mmHg 76%
08:00 +25°C° 0 mm 1 m/s 757 mmHg 71%
09:00 +27°C° 0 mm 2 m/s 757 mmHg 66%
10:00 +28°C° 0 mm 2 m/s 757 mmHg 63%
11:00 +29°C° 0 mm 3 m/s 757 mmHg 59%
12:00 +30°C° 0 mm 4 m/s 757 mmHg 55%
13:00 +32°C° 0 mm 4 m/s 757 mmHg 54%
14:00 +32°C° 0 mm 4 m/s 756 mmHg 52%
15:00 +32°C° 0 mm 4 m/s 756 mmHg 50%
16:00 +32°C° 0 mm 4 m/s 756 mmHg 54%
17:00 +30°C° 0 mm 4 m/s 756 mmHg 58%
18:00 +30°C° 0 mm 4 m/s 756 mmHg 61%
19:00 +28°C° 0.1 mm 4 m/s 756 mmHg 64%
20:00 +27°C° 0.1 mm 4 m/s 756 mmHg 66%
21:00 +25°C° 0.1 mm 5 m/s 756 mmHg 69%
22:00 +25°C° 0 mm 5 m/s 756 mmHg 70%
23:00 +25°C° 0 mm 5 m/s 756 mmHg 70%

17 Junho, Quinta-feira

Tempo Temperatura Precipitação Vento Pressão Humidade
00:00 +23°C° 0 mm 5 m/s 756 mmHg 71%
01:00 +23°C° 0.1 mm 5 m/s 756 mmHg 72%
02:00 +22°C° 0.1 mm 5 m/s 756 mmHg 73%
03:00 +22°C° 0.1 mm 5 m/s 756 mmHg 75%
04:00 +22°C° 0.2 mm 5 m/s 757 mmHg 77%
05:00 +22°C° 0.2 mm 5 m/s 757 mmHg 78%
06:00 +22°C° 0.2 mm 5 m/s 757 mmHg 80%
07:00 +23°C° 0.2 mm 5 m/s 758 mmHg 79%
08:00 +25°C° 0.2 mm 5 m/s 758 mmHg 77%
09:00 +26°C° 0.2 mm 4 m/s 758 mmHg 76%
10:00 +27°C° 0.1 mm 4 m/s 759 mmHg 73%
11:00 +27°C° 0.1 mm 3 m/s 759 mmHg 70%
12:00 +28°C° 0.1 mm 3 m/s 760 mmHg 67%
13:00 +27°C° 2.2 mm 3 m/s 760 mmHg 73%
14:00 +26°C° 2.2 mm 3 m/s 760 mmHg 79%
15:00 +25°C° 2.2 mm 3 m/s 760 mmHg 85%
16:00 +25°C° 0.8 mm 2 m/s 760 mmHg 86%
17:00 +25°C° 0.8 mm 2 m/s 760 mmHg 87%
18:00 +24°C° 0.8 mm 2 m/s 761 mmHg 88%
19:00 +24°C° 0.8 mm 2 m/s 761 mmHg 90%
20:00 +22°C° 0.8 mm 3 m/s 761 mmHg 92%
21:00 +21°C° 0.8 mm 3 m/s 762 mmHg 94%
22:00 +21°C° 2.7 mm 3 m/s 762 mmHg 95%
23:00 +21°C° 2.7 mm 2 m/s 762 mmHg 96%

18 Junho, Sexta-feira

Tempo Temperatura Precipitação Vento Pressão Humidade
00:00 +20°C° 2.7 mm 2 m/s 763 mmHg 98%
01:00 +20°C° 2.6 mm 2 m/s 763 mmHg 98%
02:00 +20°C° 2.6 mm 2 m/s 763 mmHg 97%
03:00 +20°C° 2.6 mm 2 m/s 764 mmHg 97%
04:00 +20°C° 0.9 mm 3 m/s 764 mmHg 94%
05:00 +20°C° 0.9 mm 3 m/s 764 mmHg 91%
06:00 +19°C° 0.9 mm 4 m/s 765 mmHg 88%
07:00 +19°C° 0.1 mm 4 m/s 765 mmHg 85%
08:00 +20°C° 0.1 mm 5 m/s 765 mmHg 81%
09:00 +20°C° 0.1 mm 5 m/s 765 mmHg 78%
10:00 +21°C° 0 mm 5 m/s 765 mmHg 71%
11:00 +23°C° 0 mm 5 m/s 765 mmHg 64%
12:00 +24°C° 0 mm 6 m/s 765 mmHg 57%
13:00 +24°C° 0 mm 6 m/s 765 mmHg 56%
14:00 +26°C° 0 mm 5 m/s 765 mmHg 55%
15:00 +26°C° 0 mm 5 m/s 765 mmHg 54%
16:00 +26°C° 0 mm 5 m/s 765 mmHg 57%
17:00 +25°C° 0 mm 5 m/s 765 mmHg 60%
18:00 +25°C° 0 mm 4 m/s 765 mmHg 63%
19:00 +23°C° 0 mm 4 m/s 765 mmHg 64%
20:00 +22°C° 0 mm 4 m/s 766 mmHg 65%
21:00 +20°C° 0 mm 4 m/s 766 mmHg 65%
22:00 +20°C° 0 mm 5 m/s 766 mmHg 64%
23:00 +20°C° 0 mm 5 m/s 766 mmHg 63%

19 Junho, Sábado

Tempo Temperatura Precipitação Vento Pressão Humidade
00:00 +19°C° 0 mm 6 m/s 766 mmHg 62%
01:00 +19°C° 0 mm 6 m/s 766 mmHg 63%
02:00 +17°C° 0 mm 6 m/s 766 mmHg 65%
03:00 +17°C° 0 mm 6 m/s 766 mmHg 66%
04:00 +17°C° 0 mm 6 m/s 767 mmHg 69%
05:00 +17°C° 0 mm 6 m/s 767 mmHg 72%
06:00 +16°C° 0 mm 6 m/s 767 mmHg 75%
07:00 +19°C° 0 mm 6 m/s 767 mmHg 71%
08:00 +21°C° 0 mm 7 m/s 767 mmHg 68%
09:00 +22°C° 0 mm 7 m/s 767 mmHg 64%
10:00 +24°C° 0 mm 7 m/s 767 mmHg 60%
11:00 +26°C° 0 mm 8 m/s 767 mmHg 56%
12:00 +27°C° 0 mm 8 m/s 766 mmHg 51%
13:00 +27°C° 0 mm 7 m/s 766 mmHg 52%
14:00 +28°C° 0 mm 7 m/s 766 mmHg 52%
15:00 +28°C° 0 mm 7 m/s 766 mmHg 52%
16:00 +27°C° 0 mm 6 m/s 766 mmHg 54%
17:00 +27°C° 0 mm 6 m/s 765 mmHg 56%
18:00 +26°C° 0 mm 6 m/s 765 mmHg 58%
19:00 +24°C° 0 mm 6 m/s 765 mmHg 60%
20:00 +22°C° 0 mm 5 m/s 765 mmHg 62%
21:00 +21°C° 0 mm 5 m/s 765 mmHg 64%
22:00 +20°C° 0 mm 5 m/s 765 mmHg 63%
23:00 +20°C° 0 mm 5 m/s 765 mmHg 63%
Mostrar mais